Theta_e
316 315 316 317 318 323 328 325 327 333 330 330 333 328 324 325 326 322 319 318 317 318 320 321 322 322 323 322 323 324 323 327 329 330 328 326 326 320 320 322 320 317 317 316 316 317 317 317 317 316 317 319 321 320 320 319 319 320 321 323 324 323 323 324 326 327 329 330 330 330 330 330 330 330 330 329 329 328 328 328 327 327 327 327 328 331 332 333 334 334 335 335 334 333 333 332 331
315 316 317 318 322 327 331 327 329 333 327 327 331 326 324 324 323 322 321 320 319 318 320 320 321 322 321 321 320 321 322 323 323 325 322 321 324 320 321 324 321 317 316 316 315 315 315 315 314 314 314 315 316 315 315 315 315 315 315 316 318 317 318 319 320 322 325 327 328 329 330 330 330 330 330 330 330 330 330 329 329 328 328 328 328 328 328 330 332 333 333 333 333 332 331 330 329
317 318 320 322 326 327 330 328 332 331 323 328 333 329 322 322 323 323 321 319 319 318 319 319 319 320 320 321 320 319 322 322 320 320 319 321 323 319 321 323 320 317 315 315 315 314 314 314 314 314 313 313 313 313 313 313 313 313 313 313 313 314 314 314 315 316 317 319 322 323 324 326 327 327 327 327 327 327 327 327 327 327 328 328 328 327 327 327 328 329 329 330 329 329 328 327 326
319 320 322 325 329 329 331 332 336 330 326 329 328 329 324 324 326 321 319 318 319 318 317 318 319 319 318 321 319 320 322 321 320 319 319 320 321 318 319 320 318 315 315 315 314 314 314 314 314 314 314 314 313 313 313 313 313 312 313 312 312 312 312 312 312 313 313 313 314 316 317 318 319 319 320 321 321 321 321 322 322 323 323 324 325 325 325 325 326 326 326 326 326 326 326 325 325
321 324 325 327 331 331 330 332 335 329 330 329 321 328 327 324 324 319 318 318 318 318 317 317 319 319 318 320 319 321 322 321 321 319 319 319 318 318 318 317 316 315 315 315 314 314 314 314 314 313 313 313 313 312 312 312 312 311 311 311 311 311 311 311 311 311 311 311 311 312 312 313 313 314 314 315 316 316 316 316 316 317 318 318 319 320 320 321 322 322 323 324 325 326 326 326 326
321 324 325 325 327 327 329 332 334 329 329 327 322 327 324 322 321 318 318 318 318 318 318 317 319 320 317 319 319 320 321 321 321 319 318 318 318 318 317 316 315 315 314 314 314 314 314 314 313 313 312 311 311 310 310 310 310 310 309 309 308 309 309 308 309 309 309 309 309 310 310 310 311 311 311 311 312 312 312 312 312 312 312 313 313 313 314 315 315 316 317 319 321 322 323 323 323
320 323 323 324 325 323 328 332 331 330 327 324 324 326 322 320 318 317 318 318 318 317 318 318 318 319 318 319 318 320 321 321 320 318 317 317 317 317 316 315 315 314 314 314 314 314 314 313 313 312 311 310 310 310 309 309 309 309 308 308 307 308 307 307 307 307 306 306 306 307 307 307 308 308 308 309 309 309 309 309 309 310 310 310 310 310 310 310 311 311 311 312 313 314 315 315 315
321 324 323 327 330 324 326 330 326 326 326 323 322 322 321 319 317 319 319 318 318 317 318 318 318 319 319 318 318 319 319 320 319 318 317 316 316 317 316 315 315 315 313 314 314 314 314 313 312 311 310 310 309 309 309 309 309 308 308 307 307 307 306 305 305 304 304 304 304 303 304 304 304 304 305 305 305 305 305 306 306 306 307 307 307 307 307 307 307 307 308 308 308 308 309 309 309
322 325 323 327 331 326 328 328 325 324 325 325 321 320 320 319 319 320 320 318 317 317 317 318 318 318 318 318 318 318 318 318 318 318 317 316 316 316 316 316 315 314 314 314 314 314 313 312 311 311 310 309 309 309 309 308 308 308 308 307 306 305 304 304 303 303 303 303 303 302 302 302 302 303 303 303 303 303 303 303 303 303 303 303 303 303 303 303 303 303 303 304 304 304 304 304 305
322 323 322 326 329 328 330 327 327 329 326 324 321 320 320 320 320 319 319 319 318 317 317 318 318 317 317 317 318 318 318 318 317 317 316 316 316 315 316 316 315 314 314 314 314 313 313 312 311 311 310 309 309 309 308 308 308 307 307 306 305 304 304 303 303 303 303 303 303 303 303 302 303 302 303 303 303 303 302 303 302 302 302 302 302 302 302 302 302 302 302 302 302 302 302 302 303
322 324 321 324 327 326 330 329 328 332 327 322 320 319 320 320 319 318 318 319 319 317 317 317 318 316 316 317 317 318 318 318 317 317 316 315 315 315 315 315 315 314 314 314 313 313 312 311 311 311 310 309 309 309 309 308 307 307 306 305 304 303 303 303 303 303 303 303 303 303 303 302 302 302 302 302 302 302 302 302 302 302 302 302 302 302 302 302 302 302 302 302 302 302 302 302 302
323 326 324 325 327 326 328 328 326 329 331 326 320 319 320 320 320 318 318 319 318 317 318 317 318 317 317 317 317 318 318 318 318 317 316 315 315 315 315 315 315 314 314 314 313 313 312 311 311 311 310 310 309 309 308 307 307 306 305 304 303 303 303 303 303 303 303 303 303 302 302 302 302 302 302 302 302 302 302 302 302 302 302 302 302 302 302 302 302 302 302 302 302 302 301 302 302
322 324 324 327 332 329 326 326 327 329 331 326 319 319 319 319 319 319 318 318 317 318 319 317 318 317 317 317 317 318 317 318 318 317 316 315 315 314 314 314 314 314 314 313 313 312 312 311 311 311 310 309 309 309 308 307 307 306 305 303 303 303 303 303 303 303 303 302 302 302 302 302 302 302 302 302 302 302 302 302 302 302 302 302 301 301 301 301 301 301 301 301 301 301 301 301 301
321 322 322 327 331 327 324 325 326 326 329 325 318 318 319 318 319 319 319 318 317 318 319 318 318 317 317 317 318 318 318 318 318 317 316 315 315 314 314 314 314 314 314 313 313 312 312 311 311 311 310 309 309 308 308 307 307 306 304 303 302 302 302 302 302 302 302 302 302 302 302 302 302 302 302 301 301 301 301 301 301 301 302 302 302 302 302 301 301 301 301 301 301 301 301 300 300
320 321 322 325 328 326 325 326 324 323 329 327 318 318 318 318 319 318 319 319 318 318 319 318 317 318 318 317 318 318 317 317 317 317 316 316 315 314 314 314 314 314 314 313 312 312 311 311 311 311 310 309 308 308 307 307 307 306 304 303 302 302 302 302 302 302 302 302 302 302 302 302 301 301 301 301 301 301 301 301 302 302 303 303 303 303 303 302 302 301 301 301 300 300 300 300 300
320 321 322 324 327 326 326 328 325 324 329 324 317 318 318 317 318 318 318 318 318 318 318 318 317 318 317 317 318 317 317 317 317 317 316 316 315 314 314 314 314 314 314 313 312 312 311 311 311 311 310 309 309 308 307 307 307 306 304 303 302 302 302 302 302 302 302 302 302 302 302 302 301 301 301 301 301 302 302 303 303 304 305 305 305 304 304 304 303 303 302 302 301 300 300 300 300
320 321 324 326 328 326 329 330 323 325 328 321 316 318 318 318 318 318 318 317 317 318 318 318 317 318 317 317 317 317 318 317 317 317 316 315 315 314 314 314 314 314 314 313 312 312 311 311 311 311 310 309 309 308 307 307 307 306 305 303 302 302 302 302 302 302 302 302 302 302 302 302 302 302 301 302 302 303 304 304 305 305 305 305 305 305 305 305 304 304 304 303 302 302 301 300 300
321 326 325 324 327 326 329 327 319 321 324 319 316 317 317 318 317 317 317 317 317 316 317 317 317 317 317 317 317 317 317 317 317 317 316 316 315 315 314 314 314 314 314 314 313 312 311 311 311 311 310 310 309 308 308 307 307 307 305 304 303 302 302 302 302 302 303 303 303 302 302 302 302 302 302 303 304 304 305 305 305 305 305 305 305 305 305 305 305 304 304 304 304 303 302 301 300
322 329 325 326 332 326 323 321 318 319 319 317 317 317 317 317 317 316 317 317 316 316 316 316 316 317 316 317 316 316 316 316 317 316 316 316 315 315 315 314 314 314 314 314 313 313 312 311 311 311 311 310 309 308 308 307 307 307 306 304 303 303 302 302 302 303 303 303 303 303 302 303 302 302 303 303 304 304 305 304 304 304 304 304 304 304 304 304 304 304 304 304 304 303 302 302 301
321 323 326 332 330 322 319 318 317 318 318 317 316 317 316 317 317 315 316 316 316 316 315 314 315 316 316 316 315 316 315 315 315 316 316 315 315 315 315 314 314 314 314 314 314 313 313 312 311 311 311 310 309 308 308 308 308 307 307 305 303 303 302 302 302 302 302 302 302 303 302 302 302 302 303 303 304 304 304 304 304 304 303 304 303 304 303 304 304 304 304 304 303 303 302 302 301
320 321 326 328 321 319 321 318 318 318 318 317 316 316 316 316 317 316 315 316 317 315 315 316 316 317 316 316 315 315 315 315 315 315 315 315 315 314 314 314 314 314 314 313 313 313 313 312 312 311 311 311 309 309 309 308 308 307 307 306 304 302 302 302 302 302 302 302 302 302 302 302 302 302 302 303 304 304 304 303 303 303 303 303 303 303 303 303 303 303 303 303 303 303 302 301 300
320 319 320 320 318 320 321 318 318 317 317 317 316 316 315 316 316 316 316 316 317 315 316 317 316 317 317 316 316 315 315 315 316 315 315 315 315 315 314 314 314 313 313 313 313 313 313 313 312 312 311 311 310 309 308 308 307 307 307 306 305 303 302 302 302 301 301 302 302 302 302 302 301 301 302 303 303 303 303 303 303 303 303 303 303 303 303 303 303 303 303 303 303 302 301 300 299
321 321 318 318 319 319 319 318 318 317 317 316 315 316 315 315 316 316 315 315 317 316 317 317 317 317 316 316 316 315 316 316 316 316 316 316 315 315 315 314 314 313 313 313 313 313 313 313 312 312 312 311 310 309 308 308 308 307 307 307 306 304 302 302 301 301 301 301 301 302 302 301 301 301 302 302 302 302 302 303 302 302 302 302 302 302 303 303 303 303 303 303 302 301 300 299 298
321 322 318 318 319 317 318 318 317 317 316 316 316 315 314 315 316 316 315 316 317 316 317 316 317 316 316 316 316 316 316 316 316 316 316 316 316 315 315 314 314 313 313 313 313 312 312 312 312 312 312 311 310 309 308 308 308 307 307 307 306 305 303 302 301 301 301 301 301 302 302 302 301 300 301 302 302 302 302 302 302 302 302 302 302 302 303 303 303 303 302 302 301 300 299 298 298
319 320 318 316 317 317 317 317 316 316 316 316 315 314 314 315 315 314 314 316 316 316 316 316 316 316 316 316 316 316 316 316 316 316 316 315 315 315 314 314 313 313 313 313 312 312 312 312 312 312 312 311 310 309 309 308 308 307 307 307 306 306 305 304 302 301 301 301 301 301 302 302 301 300 301 301 301 301 302 302 302 302 302 302 302 302 302 302 302 302 302 302 301 300 299 298 298
317 317 316 315 315 316 316 316 316 316 315 315 314 314 314 314 314 313 314 315 315 316 316 316 316 316 316 316 316 316 315 316 316 316 316 315 315 314 314 314 313 313 313 313 312 312 312 312 312 312 312 312 310 310 309 308 308 307 307 307 306 306 305 305 303 301 301 301 301 301 302 301 300 300 300 300 301 301 301 301 301 301 301 301 301 302 302 302 302 302 302 302 301 300 299 299 298
316 315 315 314 315 315 315 315 316 315 314 314 315 315 314 313 314 314 315 315 315 315 316 315 315 315 316 316 316 316 316 316 316 315 315 315 314 314 314 314 313 313 313 313 313 312 312 312 311 312 311 311 310 310 309 308 308 307 307 306 306 306 305 305 304 302 301 301 301 302 302 301 300 300 300 300 300 300 301 301 301 301 301 301 301 301 302 302 302 302 302 301 301 300 299 298 297
315 315 315 315 314 315 315 314 315 314 314 314 315 315 313 312 313 314 315 315 315 315 315 315 315 315 316 316 316 316 316 316 316 315 315 315 315 315 315 315 314 314 313 313 313 312 312 312 311 311 311 311 310 310 310 309 308 307 306 306 306 306 305 305 304 303 302 301 301 302 302 302 300 299 299 300 300 300 300 300 301 301 301 301 301 301 301 301 301 301 301 301 300 299 297 296 296
315 315 316 316 314 315 315 314 315 314 314 315 313 315 315 314 314 315 316 316 315 314 314 315 315 316 316 316 316 316 316 316 316 315 315 316 316 316 315 316 315 314 314 313 312 312 312 312 311 311 311 310 310 310 310 309 308 307 306 306 306 306 305 305 304 303 302 301 301 302 302 302 300 299 299 299 299 300 300 300 300 300 300 300 301 301 301 301 301 301 300 300 299 298 297 296 296
315 314 315 316 315 316 315 314 316 313 313 314 314 316 318 317 314 315 317 316 314 314 314 314 315 315 315 316 316 316 316 315 316 315 316 315 315 315 316 315 315 314 313 313 312 312 312 312 311 311 310 310 310 309 309 309 308 307 306 306 305 305 305 305 304 303 303 301 301 301 302 302 300 299 299 299 299 300 300 300 300 300 300 300 300 300 300 300 300 300 300 300 298 297 296 296 295
316 314 315 317 316 319 317 314 315 314 314 313 315 316 317 317 315 315 316 315 314 313 313 315 314 315 315 315 315 316 316 315 315 315 315 315 315 315 315 315 314 313 313 312 312 312 312 312 311 311 310 310 310 309 309 309 308 307 306 305 305 305 305 305 304 304 303 301 301 301 302 302 300 299 299 299 299 299 300 300 300 300 300 300 300 300 300 300 300 300 300 299 298 296 295 295 295
317 315 319 321 318 318 318 314 313 315 315 312 315 316 315 316 315 316 316 315 314 313 314 315 314 315 315 315 315 316 316 316 315 315 315 314 314 314 314 314 314 314 313 312 312 312 312 311 311 310 310 310 309 308 308 309 308 307 306 306 305 305 305 304 304 304 302 301 301 301 302 301 300 299 298 298 299 299 299 299 299 300 300 300 300 300 300 299 300 299 299 298 297 296 295 294 294
319 316 318 321 319 316 317 317 312 313 314 312 314 316 316 317 315 315 316 315 314 313 313 314 315 316 316 316 316 316 315 315 315 315 315 314 314 314 314 314 314 313 313 313 312 312 311 311 311 310 310 309 309 308 308 308 308 307 307 306 305 305 304 304 304 303 302 301 301 301 301 301 300 299 298 298 298 299 299 299 299 299 299 299 299 299 299 299 299 299 298 296 296 295 294 294 295
320 317 317 318 318 316 318 320 313 311 314 314 313 314 315 317 315 314 315 315 314 312 313 314 316 316 316 316 316 315 315 315 316 315 315 314 314 314 313 313 313 313 313 312 312 311 311 311 311 310 309 309 308 308 307 307 307 307 306 306 305 304 304 304 304 303 302 301 300 300 301 301 300 299 298 298 298 299 299 299 299 299 299 299 299 299 299 299 298 298 297 296 295 294 294 294 294
318 320 319 318 318 316 316 319 315 313 315 315 314 313 313 314 313 312 314 314 313 312 314 315 316 316 316 316 315 315 315 315 316 316 315 315 314 314 314 313 313 313 312 312 311 311 310 310 310 310 309 308 308 307 307 307 306 306 306 305 304 303 303 303 303 303 302 301 300 300 300 300 299 298 298 298 298 298 299 299 299 299 299 299 299 299 299 298 298 297 297 296 295 294 293 294 294
316 318 318 317 316 315 315 316 316 314 315 316 315 314 313 313 312 312 313 313 312 312 313 314 315 316 316 315 315 315 315 315 316 315 315 314 314 314 314 313 313 313 312 311 311 310 310 310 309 309 309 308 308 307 306 306 306 306 305 304 304 303 303 303 303 303 302 301 300 300 300 300 299 298 298 298 298 298 298 298 299 298 299 299 298 298 298 298 298 297 297 296 296 294 293 293 294
315 315 316 315 315 314 314 316 317 314 315 317 316 315 314 313 314 312 312 312 312 311 311 311 312 314 314 314 315 315 315 315 316 315 314 314 314 314 313 313 312 312 312 311 310 310 310 309 309 309 309 308 308 307 307 307 307 306 306 305 305 304 304 303 303 302 301 300 300 300 300 299 299 298 297 297 297 298 298 298 298 298 298 298 298 298 298 298 298 298 297 297 296 295 293 293 293
314 315 315 315 316 316 315 316 317 314 314 316 315 315 314 313 313 313 312 312 312 311 311 311 312 313 313 313 314 314 315 315 315 314 314 314 314 314 313 313 312 312 311 311 310 310 310 309 309 309 309 309 308 308 308 308 307 307 307 307 306 306 304 303 303 303 302 300 299 299 299 299 299 298 297 297 297 297 298 298 298 298 298 298 298 298 298 298 298 298 297 296 296 295 294 292 292
315 315 316 316 316 316 315 316 317 313 314 317 317 314 313 313 313 312 312 312 312 312 313 313 313 313 313 313 314 314 314 314 314 314 314 314 314 314 313 313 312 312 311 311 310 310 309 309 309 309 309 309 309 308 308 307 307 306 306 306 306 305 304 303 303 302 301 300 299 299 299 299 298 298 297 297 297 297 297 298 298 298 298 297 298 298 298 298 298 298 297 296 295 294 293 292 292
315 316 316 316 316 316 315 315 316 313 313 318 317 314 312 312 312 312 312 311 312 313 314 314 314 314 314 314 314 314 314 314 314 314 314 314 314 313 313 313 312 311 311 310 310 309 309 309 309 309 309 309 308 308 307 306 306 305 305 305 304 304 303 302 301 300 299 298 298 298 298 298 298 297 297 297 297 297 297 297 297 297 297 297 297 297 298 298 298 297 296 295 295 294 293 292 292
315 316 316 316 316 316 315 315 316 315 315 316 314 314 314 313 313 314 314 313 312 312 313 313 314 314 314 314 315 315 315 314 314 314 314 314 314 314 314 313 312 311 311 310 310 309 309 309 309 308 308 308 308 307 307 306 305 304 303 303 302 301 300 300 299 299 298 298 298 298 298 298 298 297 297 297 296 297 297 297 297 297 297 297 297 297 297 297 297 297 296 295 294 293 293 292 291
315 317 318 316 316 316 315 316 315 317 321 317 314 317 317 317 317 315 315 315 314 312 312 312 313 313 314 314 315 316 315 315 314 314 314 314 314 314 314 313 312 311 311 310 310 309 309 309 308 308 308 308 308 307 306 305 305 304 304 303 303 302 301 300 300 300 300 300 299 299 298 298 297 297 297 296 296 296 296 297 297 297 297 297 297 297 297 297 297 297 296 294 293 292 292 292 291
315 319 322 318 317 317 317 318 317 321 325 318 315 320 319 318 319 317 316 317 317 315 314 312 311 312 313 315 316 316 315 314 314 314 315 315 314 314 314 313 313 312 311 310 309 309 308 308 308 308 308 308 307 307 306 305 304 304 304 304 304 304 303 303 303 302 301 301 300 299 298 298 297 296 296 296 296 296 296 296 296 296 296 296 296 297 297 297 297 296 295 294 292 291 291 291 291
316 322 326 322 320 320 320 320 321 324 323 317 317 320 318 317 317 317 317 317 318 317 316 315 311 311 313 315 317 316 316 315 314 314 315 315 314 314 314 314 313 312 311 310 310 309 309 309 308 308 308 307 307 307 306 306 305 305 304 304 303 303 303 304 303 302 302 300 299 298 298 297 297 296 296 296 296 296 296 296 296 296 296 296 296 296 296 296 296 296 295 293 292 291 291 291 290
317 320 324 322 320 321 319 318 321 322 319 316 318 318 317 317 316 316 316 315 316 315 316 316 313 312 314 315 316 316 316 315 314 314 314 315 314 314 314 313 313 311 311 311 311 310 309 309 308 308 307 307 307 307 306 306 306 305 304 303 303 302 302 302 301 301 301 300 299 298 297 296 296 296 296 295 295 295 295 295 295 295 295 296 296 296 296 296 296 295 294 292 291 291 290 290 290
317 317 322 324 324 322 318 316 318 321 319 317 319 317 316 318 316 316 315 314 316 315 315 315 313 313 314 315 315 315 316 315 314 314 314 314 314 314 314 313 312 311 310 311 310 310 309 309 308 308 308 308 307 307 307 306 306 305 304 303 303 302 302 301 300 300 299 299 298 297 297 296 296 296 295 295 295 295 295 295 295 295 295 295 296 296 296 296 296 295 294 292 291 290 290 290 290
314 317 322 325 326 324 323 322 319 318 318 318 319 318 316 317 317 316 316 316 316 315 315 314 313 312 314 315 315 314 315 315 314 314 314 315 314 313 313 312 312 310 310 310 310 310 309 309 309 309 309 308 307 307 307 307 306 306 305 304 303 303 302 301 300 299 299 298 297 297 296 296 296 296 295 295 295 295 295 294 294 295 295 295 295 295 296 296 295 295 293 292 291 290 290 290 290
314 322 323 322 326 326 323 321 318 316 317 318 319 317 316 316 317 316 316 316 315 315 317 317 317 313 313 316 316 315 315 314 314 314 314 315 313 313 313 312 311 310 311 311 311 310 310 310 309 309 309 308 307 307 308 307 307 307 306 305 304 303 302 301 301 300 299 298 297 297 296 296 296 295 295 295 295 294 294 294 294 294 294 295 295 295 295 295 295 294 293 292 291 290 290 290 290
315 322 320 318 321 321 319 319 320 319 318 318 317 316 315 315 316 315 316 317 316 315 315 316 317 314 313 317 317 315 315 314 314 315 314 315 314 314 314 312 312 311 312 312 312 311 311 310 310 309 309 308 307 308 308 309 308 308 307 306 305 303 302 301 300 300 299 299 298 297 296 296 296 296 295 295 295 294 294 294 294 294 294 294 294 295 295 295 294 293 292 291 290 290 290 290 289
315 318 319 318 319 318 318 322 323 319 319 319 315 315 317 316 318 318 315 316 316 313 312 313 314 314 315 317 317 315 315 314 314 315 315 315 315 314 314 313 312 313 313 313 312 312 311 311 310 310 310 309 308 308 309 309 309 309 308 307 306 304 302 301 300 299 299 298 298 297 297 297 296 296 296 296 295 295 294 294 294 294 294 294 294 294 294 294 294 293 292 291 290 290 290 289 289
313 316 318 317 321 323 321 323 322 318 323 324 314 316 321 317 319 322 316 313 313 311 312 313 314 315 316 316 315 315 315 315 315 315 315 315 315 314 313 312 312 313 314 313 312 312 312 311 311 310 310 309 308 308 309 309 309 309 308 307 306 305 303 302 300 300 299 298 297 297 296 296 296 296 296 295 295 294 294 293 293 293 293 294 294 294 294 294 293 293 292 291 290 290 289 289 288
315 316 316 313 320 323 317 320 320 316 321 321 315 320 324 317 316 319 316 315 314 311 311 311 311 315 315 313 313 315 315 315 316 316 316 316 315 314 313 312 313 313 314 313 313 312 312 312 312 311 311 310 309 308 309 309 309 308 308 308 307 306 304 302 301 300 299 298 297 296 296 295 295 295 295 295 294 294 293 293 293 293 293 293 293 293 293 293 293 292 291 290 290 289 289 288 288
316 315 315 314 318 320 316 320 321 315 316 317 315 318 320 317 316 316 314 315 315 313 313 311 310 312 313 312 312 314 315 315 316 316 316 315 314 314 313 312 313 313 314 313 313 313 313 313 312 312 311 310 309 309 308 308 308 308 308 308 308 307 306 304 303 301 300 298 297 296 295 295 294 294 294 294 293 293 293 293 293 293 293 293 293 293 293 292 292 292 291 290 289 289 289 288 288
317 317 316 315 317 319 319 322 323 319 317 317 316 316 315 315 317 318 316 316 316 316 316 313 311 310 310 311 312 314 315 315 316 316 315 314 314 314 313 312 313 313 313 313 313 313 313 312 312 312 311 310 310 309 308 308 308 309 309 309 308 308 307 306 304 302 300 298 297 296 295 294 294 294 293 293 293 293 293 292 292 292 292 293 293 292 292 292 292 291 290 289 289 289 288 288 287
315 317 315 316 319 320 320 320 320 319 318 317 317 316 315 314 314 316 316 317 317 317 315 314 313 310 309 310 311 313 314 315 315 315 314 314 314 313 313 313 312 313 313 313 313 313 312 312 312 311 311 311 310 309 308 308 308 309 309 309 309 308 308 307 305 303 301 299 297 296 295 294 294 293 293 293 292 292 292 292 292 292 292 292 292 292 292 291 291 290 290 289 289 288 288 288 287
311 312 313 315 317 319 321 319 318 318 317 317 317 316 315 315 316 316 315 316 317 316 314 314 313 311 310 311 310 312 314 314 314 314 314 314 313 313 313 312 313 312 313 313 313 312 312 312 312 311 311 310 309 309 308 308 308 308 309 308 308 308 308 307 306 304 302 300 299 297 295 294 294 293 293 292 292 292 292 292 292 292 292 292 292 292 291 291 291 290 289 289 288 288 288 287 287
312 313 314 313 313 316 319 316 317 318 316 315 316 316 315 316 318 317 314 316 318 317 315 315 312 310 310 312 311 312 313 314 314 314 314 313 313 313 312 312 312 312 312 312 312 312 312 312 311 311 311 310 310 309 308 308 308 308 308 309 309 308 308 308 307 305 303 301 299 297 296 295 294 293 293 293 292 292 292 292 292 291 292 292 292 291 291 291 290 289 289 289 288 288 287 287 287
314 314 315 314 313 315 316 315 316 317 315 315 315 315 315 315 316 315 313 316 319 318 316 316 312 309 311 313 312 312 313 314 314 313 313 313 313 313 312 312 312 312 312 312 312 312 312 312 312 311 311 311 310 310 309 309 308 307 307 308 308 308 307 307 307 306 304 302 300 298 296 295 294 293 293 293 292 292 292 291 291 291 291 291 291 291 291 291 290 289 289 288 288 288 287 287 287
Wind_Speed
4 4 4 3 2 1 1 2 1 2 2 2 4 2 3 3 2 2 2 2 2 2 6 7 5 6 5 5 8 8 6 3 4 3 4 4 12 22 22 20 19 19 20 20 19 17 14 12 11 10 9 10 10 8 7 6 5 5 5 5 5 5 4 3 3 3 3 2 2 3 3 3 4 5 6 6 6 6 6 5 4 4 4 5 5 5 5 6 5 5 5 5 6 7 7 8 8
4 4 5 5 3 2 2 2 1 2 3 3 4 3 4 2 2 3 4 3 4 6 8 7 6 7 7 7 9 6 5 4 2 4 6 8 16 24 22 19 18 18 19 19 17 14 13 11 11 9 8 9 8 6 6 5 5 5 4 4 5 5 5 5 5 5 5 5 5 4 5 5 6 6 7 7 7 7 6 5 5 5 5 5 5 5 5 6 6 7 7 7 7 7 8 9 10
4 5 6 5 4 2 3 2 1 0 1 3 5 4 2 2 2 2 2 5 10 11 9 6 5 4 3 4 4 1 1 4 4 5 7 11 18 22 22 20 18 17 17 16 14 12 11 10 9 8 8 7 7 6 6 5 4 4 3 3 4 4 4 4 5 5 5 5 6 6 7 7 8 8 8 8 8 9 9 9 8 8 7 7 6 6 7 6 8 9 10 10 10 10 11 11 11
4 4 5 4 3 2 2 2 2 3 2 4 3 5 3 5 5 3 6 9 11 10 7 6 4 2 1 1 2 2 4 6 5 5 6 11 14 17 21 21 18 16 15 15 13 12 11 10 9 8 8 7 7 6 6 5 4 4 4 4 4 4 4 5 5 5 5 5 6 7 7 8 9 9 10 10 10 11 11 11 11 11 10 10 9 9 9 9 9 10 11 11 12 12 12 12 12
4 3 3 3 3 2 2 1 1 2 4 4 2 6 5 6 7 5 7 9 7 6 7 8 3 1 2 2 3 1 5 6 5 5 5 11 14 16 20 20 18 16 16 14 13 12 11 10 9 9 8 7 7 7 7 6 6 6 5 5 5 5 5 5 5 5 5 5 5 5 6 7 8 9 9 10 11 11 11 12 12 12 12 11 11 11 11 11 11 12 12 12 12 13 13 13 14
3 3 4 2 2 1 1 1 2 3 6 5 3 5 5 7 9 9 9 8 6 6 8 9 5 4 2 3 5 5 7 6 4 5 5 9 13 16 19 19 18 17 16 14 13 12 11 11 10 9 8 8 8 8 8 7 7 7 6 6 5 4 4 4 4 3 4 4 4 4 5 6 6 7 7 8 9 9 9 9 9 10 10 10 10 11 11 12 12 12 12 12 13 13 14 14 15
2 3 2 2 1 1 2 3 4 4 6 5 5 4 6 9 13 13 9 6 4 5 7 7 8 7 2 3 5 7 9 8 5 4 4 8 11 14 18 19 17 17 16 15 15 13 13 12 11 9 8 8 9 9 9 8 7 6 5 4 3 3 2 1 1 1 2 2 3 3 4 5 5 6 6 6 6 7 7 7 7 7 8 8 8 9 9 10 10 11 11 11 12 13 13 14 14
3 3 3 2 1 2 1 4 5 4 5 4 3 5 10 15 17 13 7 5 3 6 8 8 9 5 2 6 5 8 12 10 9 7 6 7 9 12 16 18 17 17 17 16 16 15 14 13 11 9 9 9 10 10 9 8 7 6 4 3 2 1 1 1 1 1 2 2 3 3 4 4 4 5 5 5 5 6 6 6 7 7 7 8 8 8 9 9 10 10 10 11 11 12 13 13 14
3 2 2 2 1 2 2 4 5 4 6 5 1 5 14 19 17 11 6 4 4 7 10 11 11 5 3 8 6 8 12 11 11 10 9 8 9 11 13 16 17 17 17 17 17 16 15 13 11 10 10 10 10 10 8 8 6 5 4 3 3 2 2 1 1 1 2 2 2 3 3 3 3 4 4 4 4 4 4 4 4 5 5 6 6 6 7 7 8 8 8 9 10 10 11 12 12
2 0 1 2 1 2 4 4 4 4 6 5 4 7 15 17 14 10 8 5 6 7 10 13 10 6 4 6 7 8 11 11 11 10 10 10 10 12 13 16 17 18 18 18 17 16 15 13 11 10 10 10 10 9 8 7 6 5 5 4 4 4 3 2 2 1 1 1 1 1 1 1 2 2 2 2 2 2 2 2 2 2 2 2 3 3 4 4 4 5 5 6 6 7 8 9 9
1 1 1 2 1 2 4 4 4 5 6 3 3 8 14 14 10 9 10 6 8 9 11 13 7 8 5 3 6 8 10 10 10 10 10 12 12 13 14 16 17 19 19 19 18 17 15 13 11 9 9 10 9 9 8 7 6 5 5 5 5 4 4 3 3 2 2 1 1 1 1 1 0 1 1 1 1 1 1 2 2 2 2 2 2 2 3 3 4 4 5 5 5 6 6 7 7
0 1 2 2 2 3 4 4 6 7 7 3 2 6 9 10 7 6 8 6 10 11 13 15 6 8 6 3 7 9 11 11 10 10 11 12 13 14 15 16 17 19 19 19 18 17 16 14 11 10 11 11 11 10 9 7 6 6 5 5 5 5 5 4 4 4 3 3 2 2 2 2 1 1 1 1 1 1 1 1 1 2 2 2 2 2 3 3 4 4 5 5 5 6 6 6 6
2 0 4 1 4 3 3 4 6 6 5 3 2 4 7 8 5 6 7 7 12 10 10 16 9 7 6 3 7 12 13 13 13 13 13 13 13 14 16 16 18 19 20 20 19 18 17 15 13 12 13 13 12 11 9 8 7 6 6 5 5 5 5 5 5 5 5 4 3 3 3 2 2 2 2 2 2 1 1 1 2 2 2 2 2 3 3 3 4 4 4 5 5 6 6 7 7
3 2 2 2 2 1 3 3 5 4 4 4 1 5 6 4 4 7 6 4 11 10 7 15 13 7 6 5 7 15 15 13 15 14 14 14 14 16 17 17 18 20 20 20 20 19 18 16 15 15 15 15 13 12 10 9 7 7 6 6 5 5 5 6 6 6 5 4 4 3 3 2 3 2 2 3 3 2 2 2 2 3 3 3 4 5 5 6 6 6 7 7 7 7 7 7 7
4 4 1 1 3 3 3 3 5 4 4 4 4 6 5 3 3 7 7 4 7 9 5 12 16 6 5 8 9 15 15 14 16 15 15 15 15 17 18 19 19 21 21 21 21 21 20 19 18 17 17 16 15 13 11 10 8 7 7 6 6 5 5 6 6 5 5 4 3 2 2 2 2 2 2 2 2 2 2 2 3 3 4 5 7 8 9 9 10 10 10 10 10 9 9 8 8
5 4 2 1 3 2 3 3 3 3 5 4 6 5 3 4 5 6 7 7 5 7 8 13 18 11 6 10 10 11 12 13 15 15 16 16 17 18 19 20 21 22 23 23 23 22 22 21 20 19 19 18 16 14 13 11 9 8 8 7 6 6 6 6 6 5 4 3 2 1 0 0 0 1 0 1 1 2 2 3 4 5 6 7 8 9 10 11 12 12 12 13 13 12 12 11 10
4 1 2 2 3 2 3 3 1 2 5 4 5 5 3 3 6 7 8 10 8 8 10 11 16 17 14 13 12 10 11 13 14 16 17 17 17 18 19 20 22 23 24 25 25 24 24 23 22 21 20 19 18 16 15 13 11 10 9 8 7 7 7 6 6 5 4 3 2 2 2 2 2 2 2 2 2 2 3 4 5 6 7 7 8 9 10 11 12 13 13 14 14 14 14 13 13
3 2 2 3 3 4 5 4 3 2 2 3 6 7 5 3 5 7 7 9 12 11 13 14 13 17 19 19 17 15 14 15 16 18 18 19 18 19 19 20 22 23 25 25 26 26 25 25 24 23 22 20 19 18 16 15 13 12 11 10 9 9 8 8 7 6 5 4 4 4 4 5 5 5 4 4 4 4 4 4 5 5 6 7 8 9 10 11 12 13 13 14 14 14 14 14 14
6 3 2 4 5 5 5 4 4 1 2 4 5 7 8 5 6 6 5 7 10 10 13 16 16 18 21 22 22 20 20 19 21 22 22 22 22 21 21 21 22 24 25 25 25 26 26 26 25 25 23 21 21 20 19 17 15 14 13 12 12 11 11 10 10 9 7 7 6 7 7 8 7 7 6 6 5 4 4 4 4 5 5 6 7 8 9 10 11 12 13 14 14 15 15 14 14
8 5 2 7 7 6 10 8 4 2 3 2 1 4 7 8 7 6 5 7 7 10 13 14 19 25 25 25 24 24 24 23 25 25 26 26 26 25 23 23 23 23 23 23 24 26 26 27 27 26 25 23 22 22 21 20 18 17 16 15 14 14 13 13 12 11 10 9 9 8 8 9 9 9 8 7 6 5 4 4 4 5 5 6 7 8 9 10 11 12 13 13 14 14 14 14 14
6 7 5 7 5 4 13 12 7 6 4 3 4 3 6 9 9 9 7 5 6 14 21 20 22 27 27 28 27 27 27 26 27 27 28 29 28 28 27 26 24 22 22 24 26 27 27 27 27 27 26 25 24 24 23 22 20 19 18 17 16 16 15 15 14 13 12 11 10 10 10 10 11 10 10 9 8 7 6 6 6 6 6 6 7 8 9 10 11 11 12 13 14 14 14 13 13
4 8 12 13 8 5 13 15 10 10 7 6 5 4 8 8 10 15 12 8 12 18 21 20 21 22 24 28 29 29 29 28 28 28 28 28 29 29 28 27 25 24 25 27 27 26 27 27 28 28 28 27 26 26 25 24 23 21 20 19 18 18 17 17 16 15 14 13 12 11 11 11 12 12 11 11 10 9 8 8 8 8 8 8 9 9 10 11 11 12 13 13 14 14 13 13 13
7 8 12 17 16 10 15 17 13 13 9 7 6 6 10 8 10 17 19 22 27 26 20 15 14 15 17 23 29 31 32 31 31 29 28 27 26 26 26 26 26 27 27 27 27 27 28 29 29 29 29 28 27 27 27 26 25 23 22 21 20 19 19 18 18 17 16 15 14 13 13 13 14 14 13 12 11 10 10 10 9 9 9 10 10 11 11 12 12 13 13 14 14 13 13 12 12
11 6 7 15 18 15 19 18 16 15 12 12 11 9 11 10 11 12 21 32 34 30 26 21 20 20 17 19 25 30 31 32 31 29 28 27 26 25 24 24 25 26 28 28 28 29 29 29 30 30 30 29 29 29 29 28 27 25 24 23 22 21 21 20 19 19 18 17 15 15 14 14 15 15 15 14 13 12 11 11 11 10 10 10 11 12 12 13 13 14 14 15 14 13 12 11 11
10 7 8 11 14 16 18 17 18 17 16 18 13 12 17 19 14 13 27 37 34 31 30 27 25 26 26 25 25 26 29 31 31 30 30 29 28 26 26 26 26 27 29 29 29 29 29 29 30 30 30 30 31 30 30 29 29 27 26 25 24 23 23 22 21 20 20 18 17 16 15 15 16 17 17 16 15 14 13 12 11 11 11 11 12 12 12 13 13 14 15 15 15 14 13 12 12
7 9 9 9 12 16 19 20 23 21 19 16 10 14 21 21 14 17 36 39 33 33 32 31 27 27 30 31 30 29 30 32 32 32 32 32 30 30 30 30 30 31 31 30 30 30 29 29 29 30 30 31 32 32 31 31 30 29 28 27 25 25 24 23 22 22 21 20 18 17 16 16 17 17 18 17 16 15 14 13 12 11 11 12 12 12 13 13 14 15 16 16 16 15 15 14 13
5 8 10 14 17 20 22 22 27 24 19 18 13 12 17 14 5 13 35 28 18 23 25 27 28 29 31 32 33 32 33 34 34 34 34 34 34 34 34 33 34 33 32 32 31 31 30 30 30 29 29 30 32 33 33 32 32 31 29 28 27 26 26 24 23 23 22 21 19 18 17 16 17 18 18 18 17 16 15 13 13 12 12 12 12 13 13 14 15 16 17 17 17 16 16 16 15
8 9 11 17 16 20 24 21 26 20 13 21 17 9 13 7 4 19 39 26 13 17 19 21 24 29 32 33 35 34 35 35 33 34 35 36 35 34 35 34 35 35 34 33 32 32 32 31 31 30 30 30 32 34 34 33 33 32 30 30 29 28 27 25 24 24 23 21 20 19 18 17 18 19 19 19 18 17 15 14 13 12 12 12 12 13 14 15 15 16 17 17 17 17 16 16 16
9 6 6 15 8 12 24 21 23 15 7 16 12 3 11 6 12 33 44 32 25 24 23 24 24 27 29 31 34 35 36 35 34 36 36 35 34 33 34 33 34 35 35 33 33 33 32 32 32 32 31 30 32 33 34 34 33 32 32 31 30 29 28 26 25 24 23 22 21 20 19 18 18 20 20 20 19 18 16 14 13 13 13 13 13 13 14 15 15 16 16 16 16 16 16 16 16
9 3 2 9 6 8 18 15 16 13 7 12 13 1 10 9 20 36 36 29 28 27 28 30 28 28 29 30 32 34 35 35 37 37 36 35 34 33 33 33 34 35 35 35 35 34 33 33 33 33 32 31 31 32 34 35 34 33 33 32 31 30 29 27 26 25 24 23 22 21 20 19 20 20 20 20 20 18 17 15 14 14 13 13 13 14 14 15 15 16 16 15 15 16 16 16 17
4 2 1 4 3 7 11 6 6 5 5 16 15 2 11 11 20 31 29 24 23 25 30 32 32 32 31 31 32 33 34 35 37 38 37 37 35 34 34 34 35 35 36 37 35 34 34 34 34 35 33 32 32 32 34 35 35 34 33 33 32 31 30 28 27 26 25 24 23 23 21 20 21 21 21 21 21 19 18 16 15 14 13 13 13 14 15 15 16 16 16 15 15 15 16 17 18
1 1 5 3 4 7 11 8 7 6 5 15 13 3 11 14 19 30 28 22 22 26 30 31 32 33 32 33 34 34 34 35 37 39 40 39 36 35 35 35 36 36 38 37 36 35 35 35 35 36 34 33 33 32 33 34 35 35 34 33 33 32 31 30 29 27 26 25 25 24 22 21 22 22 21 22 21 20 19 17 16 15 14 14 14 14 15 16 16 15 16 15 15 16 16 18 19
2 4 6 5 5 5 7 8 5 9 6 8 9 4 8 10 13 22 19 17 22 24 27 30 31 32 32 34 35 35 36 37 39 42 42 40 37 36 35 35 36 37 38 38 38 37 36 36 37 37 36 34 33 32 33 33 35 35 34 34 33 33 33 32 31 29 28 27 26 25 24 23 23 23 22 22 22 21 19 17 16 15 14 14 14 15 15 16 16 15 16 16 16 17 18 19 20
4 2 5 6 7 5 6 6 1 8 8 7 10 7 11 12 10 16 15 13 16 21 25 28 30 31 32 34 35 37 38 40 43 45 43 39 37 37 35 35 36 37 38 39 38 38 38 37 37 37 37 35 33 33 33 33 34 35 35 35 35 35 34 34 32 30 29 28 28 27 25 24 24 24 23 23 23 22 20 18 17 16 15 14 15 15 15 16 16 16 16 16 16 17 19 21 22
4 4 5 5 6 6 9 8 2 7 6 6 8 8 15 17 14 20 27 23 16 19 25 27 30 31 34 36 37 39 41 43 47 47 43 38 37 38 36 35 35 37 38 39 39 38 39 39 38 37 37 36 34 33 33 33 34 36 37 37 37 37 36 35 34 32 31 30 30 29 27 26 25 25 24 24 24 23 21 19 18 17 16 15 15 15 15 16 16 16 16 16 16 17 18 21 23
7 8 7 7 7 8 11 10 6 9 5 6 10 11 15 18 17 19 31 32 24 23 24 26 30 33 36 37 39 42 42 46 50 47 41 37 37 38 36 35 35 37 38 39 39 39 41 41 40 38 37 37 35 35 35 35 37 38 39 40 40 39 38 37 35 33 32 32 31 30 28 27 26 26 25 26 25 24 23 21 20 18 17 16 15 15 15 16 16 16 16 15 16 16 18 20 22
10 9 9 10 8 11 13 10 7 8 6 7 12 15 15 18 18 17 24 27 22 21 22 25 31 35 37 37 41 43 44 49 49 45 40 36 36 36 35 34 35 38 38 39 40 41 42 42 41 39 37 37 37 37 37 37 39 40 42 42 42 40 39 38 36 35 34 33 32 31 30 28 27 27 26 26 26 25 24 23 21 19 17 16 15 15 16 17 17 17 17 16 16 16 18 20 22
11 10 10 10 7 12 14 8 6 7 5 8 11 14 15 17 18 16 17 14 15 21 21 24 31 34 36 38 42 45 46 48 45 42 39 34 34 34 33 34 36 38 39 40 41 41 42 41 40 38 37 38 38 38 38 38 39 40 40 39 39 39 39 38 37 35 35 34 33 32 31 29 28 27 27 27 27 26 25 24 22 19 17 16 15 16 16 18 18 18 18 17 16 16 17 20 23
10 8 8 8 7 11 12 7 6 4 5 7 9 11 13 15 17 16 13 11 18 29 29 32 35 31 33 39 42 44 44 44 42 39 36 32 31 30 31 34 36 37 38 39 40 40 41 41 40 39 38 39 38 38 39 39 39 38 37 37 36 37 37 37 36 35 35 35 34 34 32 30 29 29 29 28 28 27 26 24 22 20 18 17 16 16 17 18 19 18 18 17 16 16 16 19 21
8 9 7 9 7 8 10 5 3 2 4 5 6 8 8 9 13 14 17 20 24 32 35 40 41 34 35 42 44 43 41 40 40 37 32 29 28 29 31 33 35 37 38 39 40 40 40 40 39 39 39 38 38 39 39 39 38 37 37 37 35 35 36 36 35 36 36 36 36 35 34 32 30 30 30 29 29 28 27 25 23 21 19 18 17 17 17 18 19 19 19 18 16 16 16 18 19
11 10 8 11 11 11 12 6 4 3 4 4 5 9 7 8 14 15 16 19 21 27 32 35 42 41 39 44 46 46 45 42 39 35 31 29 30 31 31 32 35 36 38 39 39 39 39 39 38 38 38 38 38 39 39 38 38 38 39 38 38 38 37 37 38 39 39 38 38 36 35 33 32 31 31 31 30 29 28 26 24 22 21 19 18 18 18 19 19 20 19 18 17 16 17 18 20
11 8 11 15 14 12 13 8 6 5 6 4 2 7 8 7 13 15 10 9 11 17 20 24 36 40 38 41 46 46 44 41 39 36 32 31 31 31 31 33 35 36 36 36 36 36 36 36 37 37 38 38 38 38 38 39 39 40 41 41 42 43 43 43 43 43 41 40 39 37 36 34 33 32 32 31 31 30 29 27 25 23 22 20 19 18 18 19 20 20 19 18 17 17 17 18 20
10 6 11 14 11 10 10 6 3 3 5 4 3 3 8 5 8 11 8 7 11 12 11 17 27 33 33 38 43 42 38 34 33 32 30 31 32 32 32 33 34 34 33 32 33 34 35 35 35 36 37 37 37 38 38 39 40 41 41 42 43 44 45 45 44 42 40 39 38 37 36 35 34 33 32 32 31 31 29 28 26 24 22 21 19 19 18 19 20 20 20 18 18 18 19 20 21
8 3 8 9 8 9 7 4 5 4 4 4 2 2 7 11 7 9 11 11 12 12 10 12 19 27 33 38 40 40 37 33 29 28 29 31 33 33 32 31 31 30 30 30 32 33 33 33 34 35 36 37 37 37 37 38 39 40 41 42 43 44 44 43 41 39 38 38 38 37 36 36 35 34 33 32 32 31 30 28 27 25 23 21 20 19 19 19 20 20 20 19 18 18 20 21 22
6 2 5 5 4 4 1 2 3 2 4 4 3 4 4 14 8 9 12 12 11 13 14 13 15 25 34 38 40 40 38 35 31 29 29 31 33 32 30 28 28 28 29 30 30 30 32 33 34 35 36 36 36 36 36 36 37 38 39 41 42 43 43 42 41 39 38 38 38 37 37 36 35 34 33 33 32 32 30 29 27 26 24 22 21 20 19 20 20 21 20 19 18 19 20 22 23
3 4 4 4 3 3 4 1 1 3 4 5 6 7 3 15 9 7 7 7 10 12 13 13 16 25 34 37 38 37 36 35 33 30 30 31 31 28 26 26 26 27 29 29 29 30 32 33 35 35 35 36 35 34 34 34 35 37 38 40 41 42 42 42 41 41 40 39 38 38 38 37 36 35 34 34 33 32 31 29 28 26 24 23 21 20 20 20 21 21 20 19 18 19 21 23 24
2 6 5 6 5 5 4 1 4 2 8 6 10 12 9 10 6 7 6 6 11 11 8 10 13 20 32 37 34 33 33 31 29 29 29 29 27 25 25 26 26 27 29 30 31 32 33 34 34 34 34 35 34 33 32 32 34 36 37 38 40 41 42 42 42 42 42 41 41 40 40 39 37 36 35 35 34 33 32 30 28 27 25 23 22 21 21 21 21 21 20 19 19 20 22 24 24
4 5 4 4 5 4 5 4 4 2 9 6 13 15 12 11 5 2 3 4 9 11 8 10 11 15 28 34 31 30 29 26 26 27 27 28 26 25 27 27 26 28 30 32 33 33 34 34 34 35 35 35 34 32 31 32 33 35 36 37 39 40 41 42 43 43 43 43 43 42 41 40 39 38 37 36 35 34 32 31 29 28 26 24 23 22 22 22 22 21 20 19 20 21 22 24 24
5 4 4 1 5 3 3 3 0 4 8 5 11 10 8 13 6 1 6 7 7 9 9 13 13 16 27 30 27 27 25 24 25 26 26 27 27 27 27 27 28 31 33 35 35 35 35 35 35 36 35 35 34 33 31 32 32 33 34 36 38 40 41 42 43 43 44 44 44 44 43 42 41 40 39 38 36 34 33 32 30 28 26 25 24 23 23 23 22 21 20 20 21 22 23 24 23
7 6 6 4 3 2 3 4 3 5 7 5 6 7 5 9 4 8 13 12 12 14 17 22 20 20 28 27 23 23 23 23 26 26 26 27 27 26 26 26 29 33 35 36 36 36 36 36 36 36 35 35 35 34 32 31 31 31 32 34 37 39 41 42 43 44 44 45 45 45 45 44 42 41 40 38 36 34 33 32 30 29 27 26 25 24 24 23 22 21 20 21 22 23 24 24 22
7 6 6 6 5 4 4 5 6 6 6 5 3 5 5 5 3 9 12 13 15 17 23 28 26 25 29 28 22 21 22 23 25 27 26 25 24 25 25 26 29 33 36 37 37 37 37 36 37 36 35 36 37 36 33 31 30 29 31 33 35 38 40 41 42 43 44 45 45 45 45 44 42 40 38 36 35 34 33 32 30 29 28 27 26 25 25 23 22 21 21 22 23 24 24 24 21
4 5 5 5 6 6 5 6 6 2 3 6 3 4 6 5 6 8 8 10 11 13 19 21 22 26 29 30 27 23 23 23 25 26 25 24 23 24 25 26 29 33 36 37 38 38 38 37 37 37 36 36 37 37 35 31 29 29 30 32 34 36 39 41 42 43 44 45 45 45 45 44 42 39 37 35 35 34 33 32 31 30 29 28 27 26 25 23 22 22 22 23 23 24 24 23 21
2 4 4 5 4 7 5 5 3 2 4 8 6 7 6 5 9 7 6 8 7 8 11 11 18 28 29 30 30 26 22 22 24 25 23 23 23 23 24 25 28 32 35 37 38 39 38 38 38 37 37 38 39 38 36 33 31 30 30 31 33 34 36 38 40 42 43 44 44 44 44 43 42 40 38 36 35 34 33 32 31 31 30 29 27 26 25 23 22 22 22 24 24 24 24 22 20
6 4 6 2 3 2 3 2 2 2 7 7 8 13 9 6 9 5 3 3 6 9 10 10 17 24 23 28 32 27 22 22 23 23 23 23 23 23 23 24 27 31 33 36 39 40 40 40 39 39 39 40 39 39 38 36 34 31 30 31 32 33 34 36 38 41 43 43 44 45 45 44 43 41 39 37 36 35 34 33 32 32 31 29 28 26 25 23 23 23 24 24 24 24 23 22 20
6 3 3 3 1 2 3 4 3 5 8 7 9 14 11 7 8 6 3 6 9 11 11 11 13 14 18 29 31 24 21 23 22 23 23 23 23 23 23 23 26 29 32 37 40 41 42 41 41 41 41 40 39 40 41 39 37 34 32 32 32 33 34 35 38 40 42 43 44 45 46 45 44 42 41 39 37 36 34 33 32 32 31 29 28 26 25 24 23 24 24 24 24 24 23 21 20
2 1 2 0 3 5 4 3 3 5 9 8 9 10 10 9 6 5 8 9 9 10 10 10 11 14 22 29 28 24 23 24 24 24 24 24 24 24 23 24 25 28 32 38 42 43 43 42 42 43 43 43 43 44 43 42 40 39 37 36 36 36 36 36 38 39 41 43 44 45 46 46 45 44 42 41 38 36 35 33 32 32 31 30 28 27 25 24 24 25 25 25 24 24 23 22 21
3 3 4 3 3 2 1 2 3 4 7 7 7 8 9 9 3 3 6 7 7 9 9 9 11 18 27 30 31 30 28 26 26 23 22 22 23 22 23 24 26 30 35 40 43 44 43 43 44 44 45 45 46 46 45 44 44 44 42 39 39 39 39 39 39 40 41 42 43 45 46 46 46 45 43 42 39 37 35 34 33 32 31 30 29 27 26 25 25 26 25 25 24 24 23 22 22
8 7 8 7 6 3 3 6 4 3 5 5 7 8 9 10 5 1 5 5 5 7 8 8 12 22 30 35 36 33 29 27 22 19 21 22 22 23 23 25 28 32 36 40 43 44 44 45 45 45 46 48 48 47 47 47 47 48 47 44 43 43 43 43 42 42 42 43 44 45 46 47 47 45 44 42 40 38 36 35 34 32 32 31 30 28 27 26 26 26 26 25 24 24 23 23 22
Wind_Direction
215 218 218 199 223 197 53 28 351 312 68 270 269 231 263 248 188 106 104 127 111 70 94 105 86 86 87 98 133 124 83 133 172 127 177 185 170 177 178 185 188 184 186 189 191 197 201 204 207 203 199 197 199 198 192 193 195 200 200 199 210 223 225 225 227 229 236 248 266 292 310 315 317 317 322 325 330 334 343 350 347 339 342 347 351 352 347 347 348 346 340 344 348 349 348 338 334
195 197 201 185 164 85 11 58 65 330 39 301 278 199 235 311 57 133 179 167 132 134 120 112 97 89 83 99 131 125 57 84 157 150 153 154 168 178 182 188 191 189 188 189 192 194 199 203 206 205 203 201 206 205 197 199 200 205 210 208 216 228 231 235 240 238 243 252 260 273 280 285 290 296 300 303 304 304 309 312 311 307 307 310 315 317 320 325 325 325 319 327 337 332 331 330 330
173 190 194 169 132 34 347 67 107 350 58 273 275 249 205 85 114 142 161 138 130 136 133 124 112 97 71 82 114 135 122 122 144 155 154 160 170 180 186 190 192 194 191 189 189 191 196 200 204 203 202 199 197 196 193 193 194 202 208 210 214 224 229 231 237 240 243 248 254 259 262 268 272 277 279 281 282 283 288 291 291 289 288 287 286 285 284 287 288 292 295 302 307 306 308 310 312
158 191 198 152 95 21 25 80 166 160 218 240 266 275 209 144 167 140 110 124 131 138 137 125 101 99 72 112 111 73 152 161 165 160 161 163 172 186 187 191 197 198 194 189 186 191 197 198 202 203 205 203 200 202 200 198 199 201 197 201 207 212 220 222 223 226 230 232 238 246 250 254 259 263 266 268 271 273 277 279 282 282 281 280 277 275 272 271 269 272 278 283 287 290 293 295 298
154 167 178 129 69 18 69 89 207 154 229 213 256 271 209 158 165 152 124 127 140 140 134 134 118 154 162 181 183 166 166 176 184 173 171 164 173 189 189 192 199 202 198 192 188 193 200 201 203 207 207 206 208 206 199 194 187 180 171 172 176 182 191 197 199 205 208 212 220 230 238 243 248 252 256 260 264 267 270 271 273 275 275 276 275 273 271 269 266 267 269 272 275 279 282 285 288
156 145 142 99 47 342 78 267 278 259 243 196 241 257 184 165 158 144 128 126 140 140 137 144 137 137 150 190 199 203 177 180 186 166 168 171 178 188 192 195 201 204 198 191 194 198 202 207 209 207 204 201 199 190 181 173 166 158 152 150 152 160 167 173 178 187 191 199 210 219 228 233 237 242 246 249 255 260 263 266 267 269 271 273 273 272 272 271 271 271 270 271 272 273 276 278 279
163 136 97 47 6 340 117 227 244 248 253 200 205 214 167 168 153 137 130 127 137 155 147 151 148 130 138 191 193 205 197 206 202 170 158 171 183 190 197 201 206 203 193 194 199 202 207 212 211 206 202 196 187 178 170 163 158 150 145 142 143 151 153 163 178 198 209 214 223 227 233 238 242 243 247 249 251 255 259 263 264 264 265 267 270 271 273 273 275 275 275 274 274 274 275 276 276
144 108 55 56 29 5 149 249 252 213 254 241 201 177 164 162 154 144 152 159 163 181 160 161 170 150 237 194 183 204 206 221 221 224 208 189 195 198 205 208 211 202 192 197 203 205 209 211 208 206 202 194 183 175 168 163 157 151 145 141 143 141 147 183 245 258 261 258 256 257 259 258 262 262 262 261 261 260 260 262 263 266 266 268 271 274 279 281 283 283 284 283 282 282 281 280 280
121 92 68 86 52 328 281 279 269 234 254 257 252 173 163 161 158 148 158 170 160 182 176 172 177 174 211 197 205 209 208 223 223 232 226 216 212 208 214 213 213 206 198 201 206 208 209 211 208 206 200 191 182 176 170 164 158 150 144 140 143 140 149 165 205 247 256 263 274 272 278 276 278 279 280 281 278 275 274 273 273 276 278 280 281 283 287 291 296 297 298 297 295 293 291 289 286
101 156 117 72 101 305 297 277 254 270 263 225 202 173 160 161 163 153 153 168 169 172 182 179 184 191 179 194 216 217 215 220 220 225 220 218 216 215 219 215 212 207 206 208 209 213 212 212 210 208 202 192 184 179 173 168 157 148 144 144 146 146 149 148 159 182 205 229 260 262 281 284 298 308 312 320 319 321 322 320 321 318 312 309 310 310 312 316 319 320 320 318 317 314 309 306 302
59 249 173 63 73 277 266 259 259 278 283 257 202 167 158 163 159 161 158 158 176 164 169 173 193 208 193 220 224 226 223 218 219 223 216 215 217 220 221 218 213 206 208 213 214 216 215 212 212 213 207 199 191 184 179 173 162 151 148 148 148 148 148 148 153 156 163 166 166 163 146 136 88 77 53 32 13 1 4 8 8 11 13 359 354 352 347 347 345 344 342 339 337 333 329 326 323
339 281 103 109 209 227 229 264 275 278 296 314 247 178 163 168 155 176 174 161 172 162 173 179 189 196 191 253 230 233 229 219 217 217 217 219 222 223 224 222 217 210 210 215 218 218 217 215 215 216 212 206 197 190 185 176 166 158 154 152 151 151 152 153 157 159 162 158 155 150 145 143 137 142 133 130 119 67 39 28 37 30 29 24 17 13 7 4 359 355 351 349 347 343 339 335 332
233 254 91 169 213 210 256 283 279 294 310 294 241 185 165 176 186 208 195 174 169 162 192 196 190 182 190 224 222 230 227 223 220 219 221 222 226 226 225 224 220 216 215 219 221 220 220 219 218 219 215 208 200 192 187 180 173 166 163 162 159 157 157 158 159 160 161 160 160 158 158 161 159 160 155 144 135 120 102 87 73 56 52 42 33 27 20 13 6 360 356 351 350 348 345 344 343
245 309 100 229 260 232 254 273 288 303 293 272 181 160 170 186 219 217 207 191 182 186 220 207 196 191 203 196 220 230 223 222 223 221 222 223 226 226 226 225 224 221 220 222 223 223 223 221 221 220 216 209 202 193 191 189 182 176 173 172 168 164 162 161 161 162 164 164 163 162 160 157 153 151 145 139 127 120 107 90 73 57 43 30 21 15 9 5 2 357 354 352 351 350 348 350 350
275 314 86 215 317 306 243 230 266 260 255 245 156 162 186 210 237 224 222 232 210 205 207 195 193 197 210 199 227 239 229 228 226 221 222 224 224 223 226 226 226 225 223 225 225 226 225 224 223 220 217 211 204 196 195 196 190 185 182 181 178 173 171 170 170 170 170 168 164 164 161 147 146 148 139 127 112 96 79 62 45 32 19 15 11 6 4 360 357 354 351 349 347 347 344 343 341
278 302 61 336 282 283 253 231 254 239 258 235 165 174 200 226 226 226 235 233 233 210 192 190 198 213 229 215 232 241 232 232 227 222 221 222 221 220 223 225 226 226 225 226 227 228 226 225 224 222 219 213 208 202 199 200 196 192 189 191 190 187 185 183 183 183 184 182 189 212 263 279 249 233 117 34 34 29 28 27 18 14 8 6 4 1 359 354 351 348 344 341 338 337 335 332 330
261 252 95 292 247 229 242 231 274 213 254 259 188 192 187 250 231 223 244 237 237 223 208 208 210 223 239 241 244 237 229 230 224 220 219 219 221 220 222 223 224 225 226 227 228 228 226 226 225 224 221 217 213 206 204 204 201 199 197 199 200 200 200 200 202 205 213 226 257 279 285 274 269 277 287 305 321 337 349 358 357 359 358 355 354 350 348 346 342 340 336 334 331 328 327 324 324
200 117 155 242 229 214 210 209 254 210 225 242 210 205 191 245 242 227 249 242 239 237 229 229 227 231 240 247 250 246 237 232 228 225 225 224 225 226 227 227 227 227 229 229 230 230 228 227 227 226 224 221 216 211 208 207 206 205 203 204 206 209 210 212 217 222 236 251 263 264 262 262 260 263 268 278 291 304 318 334 340 342 343 339 338 336 335 335 333 332 330 327 325 322 319 317 315
192 162 170 231 213 223 249 268 275 284 230 215 206 215 208 242 249 222 242 246 235 236 240 233 233 236 239 244 247 247 242 237 237 235 235 237 237 239 237 235 232 230 232 234 235 235 232 229 229 229 229 224 218 216 213 211 211 209 208 208 209 212 216 218 223 230 238 246 254 258 262 266 263 260 262 267 273 281 291 304 317 320 324 324 323 325 326 327 328 326 325 323 321 318 315 311 309
208 195 216 244 224 252 282 300 309 301 265 235 290 232 218 242 241 210 226 256 243 228 237 227 227 236 237 241 243 244 243 240 241 241 242 244 245 246 244 243 241 239 240 241 239 238 236 233 232 232 233 228 222 220 217 214 213 212 212 210 212 214 218 221 226 232 237 243 251 256 261 262 259 255 256 256 257 259 264 271 283 293 301 307 311 316 318 319 321 321 322 321 319 317 314 311 308
198 183 205 238 229 281 278 292 303 286 290 275 293 284 258 258 239 225 222 260 261 235 242 239 239 246 242 239 241 243 243 242 243 244 246 247 247 247 248 249 250 249 245 242 240 239 239 238 236 235 236 232 226 225 222 218 215 215 214 211 213 215 219 223 227 233 237 244 249 252 254 254 252 248 246 246 245 245 246 253 261 272 280 289 296 301 304 307 312 315 318 319 318 317 315 313 311
201 212 223 237 245 278 276 285 291 279 287 281 281 285 276 267 239 234 219 222 250 248 254 255 254 259 252 246 245 242 241 243 245 246 248 249 250 250 251 250 248 245 241 240 240 240 240 239 238 237 236 234 230 228 225 221 218 217 216 215 215 217 220 225 229 234 238 244 248 251 253 252 249 243 240 239 238 239 242 251 258 268 276 282 287 290 294 299 305 311 315 318 319 319 319 318 317
221 249 236 244 247 252 271 280 284 278 275 269 274 270 267 263 254 246 227 234 253 259 262 259 260 263 258 253 246 241 242 243 245 248 250 251 252 252 252 251 249 246 245 244 242 240 239 238 238 237 235 234 231 229 227 224 222 219 218 217 218 219 222 227 230 234 238 243 248 251 253 252 248 243 238 237 237 241 245 253 261 268 274 278 281 285 290 295 303 311 317 320 322 322 320 320 320
216 261 258 257 256 257 269 280 285 277 269 270 271 270 264 249 257 259 240 246 258 262 260 255 258 264 263 256 246 244 246 247 250 252 253 253 254 256 254 254 254 252 249 247 244 240 239 238 237 237 235 233 231 230 229 227 224 221 220 219 219 221 223 227 230 234 238 242 246 250 252 251 247 242 239 238 240 243 249 255 260 265 269 273 277 281 287 295 305 313 319 322 324 322 319 319 319
215 246 262 265 269 267 272 283 285 278 275 275 267 257 257 250 259 270 256 257 261 261 261 259 256 258 259 257 253 249 248 249 252 252 253 254 253 251 249 249 249 248 247 246 245 243 241 239 238 237 236 233 231 231 231 229 227 224 222 222 220 222 224 226 229 233 237 241 245 248 250 249 246 242 240 239 241 245 250 255 259 264 268 271 276 280 287 297 306 313 318 322 323 323 322 321 321
216 236 262 281 283 280 281 281 279 278 275 265 247 253 257 257 269 275 265 263 265 263 261 260 255 252 252 253 253 252 251 252 254 254 256 255 251 248 247 245 245 247 247 246 246 246 243 241 238 237 236 234 231 230 230 230 229 227 225 224 223 224 226 227 229 232 236 240 244 246 248 247 244 242 240 240 242 245 249 254 259 262 266 270 276 282 290 299 306 312 317 320 323 325 325 325 326
247 269 288 288 284 288 286 280 277 277 274 255 228 249 263 260 257 269 270 269 268 262 257 257 252 247 248 249 251 252 254 256 257 258 256 253 249 249 249 245 246 247 246 244 245 246 244 243 240 238 235 233 231 229 230 230 230 229 227 226 225 225 227 228 229 231 235 238 241 244 246 244 243 242 241 242 242 245 249 253 257 260 265 270 276 284 291 299 305 311 316 321 324 326 328 329 330
282 306 310 289 289 296 284 275 275 272 271 249 221 245 277 264 191 249 264 266 260 260 259 258 248 244 246 247 251 252 253 257 258 256 253 252 251 252 251 249 248 246 245 244 244 244 244 244 242 240 236 232 230 229 229 230 231 230 228 227 227 227 228 229 229 230 233 236 239 243 244 243 242 242 242 243 244 245 248 251 255 259 264 270 277 283 289 298 305 312 318 323 326 327 329 329 331
294 310 313 289 310 302 277 270 265 252 252 238 197 267 284 238 223 249 263 266 261 261 261 260 251 247 245 245 250 251 254 256 254 253 253 255 256 255 254 254 253 248 248 246 243 243 244 244 243 242 238 234 231 229 229 229 231 230 229 229 228 229 229 230 231 231 232 235 238 241 242 243 241 242 242 243 245 246 247 249 253 258 263 270 277 283 290 298 305 312 317 322 325 326 326 327 331
295 287 214 285 329 297 271 268 252 236 232 200 157 243 271 242 243 254 267 270 262 256 253 254 250 249 247 245 247 249 254 254 253 255 256 257 257 257 257 257 253 250 248 245 242 242 242 243 244 243 240 236 233 230 228 229 230 230 230 230 229 230 230 231 232 232 232 234 237 239 240 241 240 241 241 242 244 244 245 247 251 256 263 270 277 283 289 296 301 307 314 320 323 324 325 328 331
279 298 219 258 295 276 273 270 201 203 208 175 154 231 258 259 260 262 272 268 256 247 247 250 247 248 248 246 247 248 253 256 260 263 261 259 257 258 258 257 253 249 246 243 243 243 241 243 243 242 241 239 235 231 229 229 230 230 231 231 230 231 231 232 233 233 233 234 236 239 239 239 239 240 240 241 243 243 244 245 250 255 262 270 276 282 288 293 297 305 313 319 322 323 327 330 331
221 248 283 259 211 261 283 277 195 193 200 167 157 217 255 263 268 269 273 265 249 239 243 248 246 247 246 246 246 247 255 260 264 265 263 260 257 257 257 257 254 250 247 244 242 241 240 242 242 242 241 239 237 233 230 229 230 231 231 232 232 232 233 234 234 233 233 234 236 238 238 238 238 239 239 241 241 242 243 244 248 254 261 270 276 282 287 291 297 306 313 318 321 324 329 330 330
294 199 252 261 233 264 293 292 214 181 164 176 192 214 253 262 268 270 268 260 248 233 238 243 244 249 246 246 245 246 256 261 264 265 262 259 258 257 256 256 256 253 250 245 241 239 239 240 240 241 241 240 238 235 232 230 230 231 232 233 233 233 234 234 234 233 233 234 235 237 237 237 238 238 238 240 241 241 242 243 247 253 260 269 275 281 286 291 299 308 314 319 322 327 329 328 328
288 222 238 251 245 260 272 299 310 155 149 200 225 229 249 255 271 273 261 258 249 227 233 240 241 247 248 249 247 248 255 260 266 268 264 262 262 259 256 256 256 253 250 245 241 240 239 239 239 240 240 239 239 236 234 231 231 231 232 233 233 233 234 234 234 233 233 233 235 236 236 236 237 237 237 239 240 240 240 242 245 251 257 265 273 280 286 292 300 308 314 318 323 328 329 327 328
241 229 238 256 251 253 255 269 206 161 168 208 221 236 251 256 266 266 261 261 252 231 235 241 243 247 251 252 251 254 256 260 269 270 267 266 264 261 256 253 253 251 248 244 240 238 237 237 237 238 238 238 238 236 235 232 231 231 231 231 230 231 232 233 234 233 233 233 234 236 235 235 236 237 237 238 238 238 239 240 243 248 254 262 271 279 286 292 299 305 310 317 322 327 328 329 329
236 241 245 255 256 258 255 260 216 177 194 217 219 234 244 253 256 255 258 259 257 249 243 243 246 249 251 252 253 255 256 261 270 271 268 268 265 261 256 251 249 248 247 243 239 236 235 234 233 235 236 237 237 234 232 230 229 229 229 229 229 230 230 232 234 234 233 233 234 235 235 235 235 236 236 237 237 237 238 240 242 246 252 260 269 278 285 289 294 299 306 313 319 325 328 328 328
250 257 258 255 256 264 259 262 240 187 196 224 221 235 241 249 255 250 253 257 259 257 248 242 243 247 250 251 253 255 257 264 270 270 268 268 264 259 253 248 245 243 242 240 237 235 234 232 232 234 235 236 236 235 233 231 230 229 228 229 230 231 232 232 234 234 234 233 234 235 236 236 235 236 236 236 236 236 237 239 242 245 251 258 267 275 281 284 289 296 303 309 316 324 328 328 329
249 252 259 259 247 263 261 256 248 192 197 247 233 242 249 249 256 257 250 248 252 252 249 247 245 246 250 253 255 257 261 265 268 269 269 266 259 253 246 242 240 239 238 238 237 235 234 233 233 235 236 236 237 238 237 236 235 234 234 235 235 235 235 236 237 237 237 235 235 236 236 236 236 236 236 236 236 237 238 240 242 245 249 256 264 272 278 282 287 293 299 306 314 322 328 329 331
244 245 256 263 246 269 268 245 249 198 190 253 249 247 253 253 258 261 252 235 242 248 249 253 252 249 252 255 257 259 261 264 266 267 266 262 254 245 239 238 238 238 238 238 237 235 234 234 234 235 236 237 238 239 238 238 238 238 240 240 239 238 237 238 239 239 239 237 236 236 236 235 236 236 236 237 237 238 239 240 241 243 247 254 261 270 276 280 284 290 295 302 311 319 325 327 330
240 241 249 259 249 265 268 247 258 221 204 254 268 262 256 261 269 266 254 244 245 249 251 255 258 255 254 258 259 260 261 262 264 264 260 254 246 237 234 236 236 235 235 235 235 234 234 235 235 235 236 237 238 238 238 238 238 238 239 239 239 239 239 239 238 236 236 236 235 235 236 235 235 236 237 238 238 238 239 239 241 242 247 253 260 268 274 278 282 287 293 299 306 315 320 323 327
244 233 231 251 249 245 255 276 323 293 282 288 287 287 269 235 252 260 254 248 246 250 251 255 258 257 257 259 261 260 260 261 261 258 252 247 241 235 233 234 233 232 233 234 234 235 235 235 235 235 236 237 237 238 237 237 236 234 234 233 232 232 233 233 233 232 231 232 233 235 236 236 236 236 237 238 238 238 239 239 240 242 246 252 258 265 271 275 279 284 290 296 303 310 314 318 323
260 226 212 238 248 249 257 289 331 317 297 282 228 280 275 205 225 249 257 253 248 246 245 249 254 255 255 257 260 260 259 258 258 255 251 246 240 232 230 231 231 232 234 235 236 236 236 235 235 234 235 236 236 237 236 236 235 234 233 231 229 228 228 229 231 233 233 234 236 236 236 236 236 236 236 237 238 238 238 239 240 243 246 251 256 263 268 273 278 282 287 293 299 304 308 314 320
271 226 205 228 242 255 262 274 297 263 265 275 134 236 277 246 216 237 242 242 251 245 238 244 249 252 251 250 255 259 259 258 254 251 248 243 235 228 227 230 232 233 234 233 233 234 234 233 233 233 233 234 235 235 235 235 235 235 236 236 235 235 234 235 236 237 239 240 240 238 237 237 236 236 237 237 237 238 238 238 240 242 246 250 255 260 266 270 276 281 285 290 295 301 306 312 317
266 221 192 211 231 249 253 231 221 234 275 293 126 123 288 280 235 212 216 221 242 250 245 247 246 248 248 246 249 254 257 259 254 248 244 240 234 228 229 232 234 235 232 228 227 227 228 228 229 231 232 233 234 235 235 236 236 237 237 237 238 239 240 243 243 243 243 242 241 239 238 237 236 236 236 236 237 237 237 238 240 242 245 248 253 258 263 269 274 279 283 287 292 299 305 311 315
256 161 164 177 200 224 155 158 221 297 332 283 206 122 289 280 248 192 209 213 227 244 242 244 243 243 246 247 249 252 255 257 256 252 248 243 236 231 231 235 236 234 228 224 222 222 223 225 227 229 230 232 233 234 235 236 238 239 239 238 238 239 241 242 244 244 243 242 240 238 236 236 235 234 235 236 236 237 237 239 240 242 245 248 252 256 261 267 272 276 281 286 291 297 304 308 311
238 102 78 64 59 51 70 100 117 33 308 253 195 149 220 279 268 164 191 209 213 234 236 235 237 240 247 250 251 253 255 256 255 252 251 248 241 234 233 235 236 232 227 223 221 221 222 223 225 227 228 230 231 232 234 236 238 238 239 239 240 240 240 239 240 240 239 239 238 236 235 234 234 234 234 235 236 236 237 239 240 242 245 248 252 256 260 265 269 274 278 283 289 295 301 305 308
117 82 45 24 8 27 51 16 76 50 276 234 185 176 187 269 287 142 171 199 199 213 227 239 241 239 247 252 253 254 254 253 251 247 247 246 239 230 231 234 233 230 224 221 220 220 221 222 224 225 227 229 229 229 232 235 237 239 240 241 241 241 240 239 238 237 237 236 235 234 233 234 234 234 235 235 235 236 236 238 240 242 245 248 252 255 259 264 267 272 276 281 286 291 296 301 305
85 80 64 11 326 11 26 354 61 216 264 219 185 183 187 233 275 128 232 239 204 206 205 225 238 237 244 251 254 254 251 247 243 240 240 239 231 223 226 230 228 224 219 216 216 216 218 220 221 223 225 226 226 226 230 234 237 240 242 242 243 242 242 240 240 239 238 237 235 234 233 233 233 233 234 235 234 235 236 237 239 242 245 248 251 255 258 263 266 270 275 280 283 288 293 299 303
96 97 104 21 299 340 351 307 105 224 259 231 190 179 204 240 258 271 277 285 237 220 213 218 222 230 239 247 255 254 246 238 234 233 236 236 232 227 226 226 220 216 213 212 213 214 216 218 219 221 222 222 222 223 227 232 236 239 242 243 244 243 242 242 242 242 241 240 239 237 236 234 233 233 234 235 235 236 237 238 240 242 245 247 250 254 258 261 265 270 274 277 281 287 293 298 301
158 146 145 173 223 254 266 261 269 263 269 260 185 165 243 276 274 213 226 236 225 217 220 223 221 231 238 243 256 256 242 233 230 228 231 235 237 236 232 227 218 212 212 212 213 214 216 217 218 219 220 221 222 221 224 229 233 238 241 244 245 244 243 243 243 242 242 242 241 241 241 239 238 238 238 238 238 238 238 238 239 241 243 246 250 253 256 260 264 268 272 276 280 286 292 296 298
183 159 151 183 184 181 222 240 254 273 288 283 174 159 234 282 272 216 216 233 234 224 225 226 227 238 244 245 254 254 239 232 229 226 228 234 240 242 239 233 223 217 215 215 215 216 217 218 218 218 218 219 220 220 221 226 230 234 238 242 244 244 245 244 243 244 243 243 243 242 243 242 242 241 241 240 239 238 238 238 238 240 242 245 248 251 255 259 262 267 271 275 279 285 290 294 296
217 129 132 213 196 186 230 256 238 230 311 285 220 200 234 252 265 248 238 254 252 235 232 230 233 241 246 246 248 244 234 228 226 223 227 233 239 243 244 238 230 224 220 219 219 219 220 221 220 219 219 219 220 220 220 223 227 231 235 239 242 244 244 244 244 244 243 243 243 244 244 243 243 242 240 239 238 237 238 238 239 240 241 244 247 250 254 257 261 266 269 273 278 284 289 292 294
196 128 183 217 165 169 218 277 271 161 258 271 253 249 275 312 288 266 238 253 271 265 248 239 239 239 241 243 240 234 228 225 225 225 229 235 240 244 246 242 235 229 228 228 226 225 225 226 225 223 222 222 222 222 221 222 225 229 233 236 239 242 245 246 246 245 243 242 242 243 243 243 242 241 239 237 236 237 237 238 239 239 241 244 247 250 253 256 260 264 267 272 279 284 289 291 292
131 176 216 190 65 123 164 223 297 239 247 264 268 269 282 300 284 307 36 269 266 265 252 238 239 238 240 242 238 230 225 225 225 227 232 237 241 246 248 246 241 237 237 238 235 231 229 230 229 227 226 225 225 224 222 222 224 227 232 235 237 241 244 246 247 246 244 242 241 241 240 240 240 239 238 236 236 236 237 238 239 239 241 244 246 249 252 256 259 263 267 272 279 284 287 289 291
135 203 223 122 158 231 165 173 209 234 245 255 268 276 277 252 256 294 318 250 240 242 240 239 242 241 243 245 242 232 223 223 226 230 237 241 243 247 248 249 248 244 244 244 240 234 233 233 232 231 231 231 230 227 225 223 224 228 232 235 237 239 242 245 245 245 245 243 242 241 240 239 238 238 237 237 236 236 237 238 239 240 241 243 246 249 251 255 258 262 267 273 279 283 285 287 289
99 342 310 89 187 192 185 183 167 215 243 252 260 272 274 254 239 248 252 241 234 237 238 239 241 238 240 244 246 240 228 228 233 238 244 248 250 252 252 253 255 253 251 248 242 238 237 238 237 235 235 234 232 231 229 227 226 228 231 234 236 238 239 242 244 244 245 245 243 241 240 239 238 237 237 237 237 237 238 239 239 240 242 243 246 248 251 254 257 262 268 273 279 281 283 286 287
184 210 236 238 222 172 220 232 165 204 238 247 250 254 266 265 216 182 259 250 226 230 231 233 238 238 241 246 248 243 236 236 241 246 254 259 259 261 260 260 259 256 253 250 247 243 241 241 242 240 239 237 235 234 233 231 229 229 231 233 236 237 237 239 241 243 244 244 243 242 240 239 238 237 237 236 236 237 238 239 239 240 242 243 245 247 250 253 256 262 268 272 277 280 282 285 287
184 201 210 209 210 196 253 248 212 213 237 239 251 252 262 273 261 247 292 267 224 228 225 232 245 240 239 243 246 243 238 240 247 259 268 270 268 270 271 270 265 259 256 255 252 247 244 244 247 246 242 240 239 238 236 234 232 231 232 233 235 236 236 237 239 241 242 242 242 241 239 238 237 236 236 236 236 236 236 237 238 239 241 242 244 246 248 252 256 261 267 271 275 278 281 283 286